Weather History for Rantoul, IL

Change the Weather History Date:

Wednesday, May 22, 2013

  Actual Average (KCMI) Record (KCMI)
Temperature  
Mean Temperature 70 °F 65 °F  
Max Temperature 77 °F 77 °F 91 °F (2011)
Min Temperature 62 °F 53 °F 37 °F (1997)
Degree Days  
Heating Degree Days 0 3  
Month to date heating degree days 120  
Since 1 July heating degree days 5784  
Cooling Degree Days 4 3  
Month to date cooling degree days 44  
Year to date cooling degree days 55  
Growing Degree Days 20 (Base 50)    
Moisture  
Dew Point 59 °F    
Average Humidity 69    
Maximum Humidity 84    
Minimum Humidity 39    
Precipitation  
Precipitation 0.11 in 0.14 in 0.81 in (1998)
Month to date precipitation 3.30  
Year to date precipitation 13.91  
Sea Level Pressure  
Sea Level Pressure 29.73 in    
Wind  
Wind Speed 13 mph (SW)    
Max Wind Speed 21 mph    
Max Gust Speed 32 mph    
Visibility 10 miles    
Events Rain    
T = Trace of Precipitation, MM = Missing Value Source: NWS Daily Summary

Daily Weather History Graph

Daily Weather History Graph

Search for Another Location

Airport:

Trip Planner

Search our weather history database for the weather conditions in past years. The results will help you decide how hot, cold, wet, or windy it might be!

Date:

Astronomy

May. 22, 2013 Rise Set
Actual Time 5:30 AM CDT 8:08 PM CDT
Civil Twilight 4:59 AM CDT 8:40 PM CDT
Nautical Twilight 4:19 AM CDT 9:19 PM CDT
Astronomical Twilight 3:35 AM CDT 10:04 PM CDT
Moon 5:30 PM CDT (5/22) 3:34 AM CDT (5/22)
Length of Visible Light 15h 40m
Length of Day
14h 37m
Waxing Gibbous, 91% of the Moon is Illuminated
May 22
Waxing Gibbous
May 24
Full
May 31
Last Quarter
Jun 8
New
Jun 16
First Quarter

Hourly Weather History & Observations

Time (CDT) Temp. Dew Point Humidity Pressure Visibility Wind Dir Wind Speed Gust Speed Precip Events Conditions
12:35 AM - - N/A% 29.73 in 10.0 mi South 12.7 mph - N/A   Mostly Cloudy
12:55 AM 70.3 °F 64.0 °F 80% 29.73 in 10.0 mi South 10.4 mph - N/A   Scattered Clouds
1:15 AM 70.2 °F 63.5 °F 79% 29.73 in 10.0 mi South 15.0 mph - N/A   Mostly Cloudy
1:35 AM 70.0 °F 63.5 °F 80% 29.73 in 10.0 mi South 13.8 mph 19.6 mph N/A   Overcast
1:55 AM 69.4 °F 63.5 °F 81% 29.71 in 10.0 mi South 10.4 mph - N/A   Mostly Cloudy
2:15 AM 69.3 °F 63.5 °F 82% 29.71 in 10.0 mi South 10.4 mph - N/A   Mostly Cloudy
2:35 AM 68.9 °F 63.5 °F 83% 29.71 in 10.0 mi SSW 9.2 mph - N/A   Scattered Clouds
2:55 AM 68.9 °F 63.5 °F 83% 29.71 in 10.0 mi SSW 11.5 mph - N/A   Mostly Cloudy
3:15 AM 68.9 °F 63.5 °F 83% 29.71 in 10.0 mi SSW 11.5 mph 17.3 mph N/A   Overcast
3:35 AM 68.9 °F 63.5 °F 83% 29.72 in 10.0 mi SSW 12.7 mph - N/A   Mostly Cloudy
3:55 AM 68.5 °F 63.0 °F 82% 29.71 in 10.0 mi SW 12.7 mph 17.3 mph N/A   Overcast
4:15 AM 68.2 °F 62.8 °F 83% 29.71 in 10.0 mi SW 11.5 mph - N/A   Mostly Cloudy
4:35 AM 68.0 °F 62.6 °F 83% 29.71 in 10.0 mi SW 11.5 mph 16.1 mph N/A   Mostly Cloudy
4:55 AM 68.0 °F 62.6 °F 83% 29.71 in 10.0 mi SW 10.4 mph 18.4 mph N/A   Mostly Cloudy
5:15 AM 67.5 °F 62.2 °F 83% 29.71 in 10.0 mi SW 11.5 mph - N/A   Mostly Cloudy
5:35 AM 67.3 °F 62.1 °F 83% 29.71 in 10.0 mi SW 12.7 mph - N/A   Mostly Cloudy
5:55 AM 67.1 °F 61.9 °F 83% 29.71 in 10.0 mi SW 12.7 mph - N/A   Mostly Cloudy
6:15 AM 66.7 °F 61.9 °F 84% 29.71 in 10.0 mi SW 10.4 mph - N/A   Scattered Clouds
6:35 AM 66.9 °F 61.9 °F 84% 29.71 in 10.0 mi SSW 6.9 mph 16.1 mph N/A   Scattered Clouds
6:55 AM 67.3 °F 62.1 °F 83% 29.69 in 10.0 mi South 5.8 mph - N/A   Scattered Clouds
7:15 AM 67.6 °F 61.9 °F 82% 29.67 in 10.0 mi SSE 6.9 mph - N/A   Scattered Clouds
7:35 AM 68.0 °F 61.9 °F 81% 29.67 in 10.0 mi South 11.5 mph - N/A   Clear
7:55 AM 68.5 °F 62.4 °F 81% 29.69 in 10.0 mi South 13.8 mph - N/A   Mostly Cloudy
8:15 AM 69.3 °F 61.9 °F 77% 29.71 in 10.0 mi SW 11.5 mph 18.4 mph N/A   Overcast
8:35 AM 70.3 °F 61.0 °F 72% 29.71 in 10.0 mi SSW 15.0 mph 21.9 mph N/A   Mostly Cloudy
8:55 AM 69.8 °F 60.8 °F 73% 29.72 in 10.0 mi SSW 15.0 mph 21.9 mph N/A   Mostly Cloudy
9:15 AM 69.3 °F 59.9 °F 72% 29.72 in 10.0 mi SSW 16.1 mph 21.9 mph N/A   Overcast
9:35 AM 69.8 °F 61.2 °F 74% 29.72 in 10.0 mi SW 16.1 mph 20.7 mph N/A   Mostly Cloudy
9:55 AM 70.7 °F 60.6 °F 70% 29.71 in 10.0 mi SW 17.3 mph 21.9 mph N/A   Scattered Clouds
10:15 AM 72.1 °F 59.5 °F 64% 29.71 in 10.0 mi SW 12.7 mph - N/A   Scattered Clouds
10:35 AM 73.2 °F 59.0 °F 61% 29.71 in 10.0 mi SSW 15.0 mph 21.9 mph N/A   Scattered Clouds
10:55 AM 74.1 °F 60.4 °F 62% 29.71 in 10.0 mi SW 15.0 mph 20.7 mph N/A   Scattered Clouds
11:15 AM 72.1 °F 60.6 °F 67% 29.71 in 10.0 mi SW 18.4 mph 24.2 mph N/A   Scattered Clouds
11:35 AM 74.8 °F 61.2 °F 62% 29.71 in 10.0 mi SW 15.0 mph 21.9 mph N/A   Scattered Clouds
11:55 AM 72.3 °F 61.0 °F 67% 29.72 in 10.0 mi West 12.7 mph 21.9 mph N/A   Mostly Cloudy
12:15 PM 73.0 °F 61.0 °F 66% 29.72 in 10.0 mi West 15.0 mph 21.9 mph N/A   Mostly Cloudy
12:16 PM 73.4 °F 60.8 °F 65% 29.72 in 10.0 mi West 20.7 mph 32.2 mph N/A   Scattered Clouds
12:35 PM 67.8 °F 59.9 °F 76% 29.73 in 7.0 mi West 16.1 mph 25.3 mph N/A Rain Light Rain
12:55 PM 70.5 °F 58.6 °F 66% 29.74 in 10.0 mi West 17.3 mph 21.9 mph N/A   Scattered Clouds
1:15 PM 73.4 °F 56.1 °F 55% 29.74 in 10.0 mi West 13.8 mph 21.9 mph N/A   Clear
1:35 PM 74.3 °F 52.7 °F 47% 29.74 in 10.0 mi West 18.4 mph 24.2 mph N/A   Scattered Clouds
1:55 PM 76.1 °F 52.5 °F 44% 29.74 in 10.0 mi West 17.3 mph 23.0 mph N/A   Scattered Clouds
2:15 PM 75.7 °F 51.1 °F 42% 29.74 in 10.0 mi West 17.3 mph 23.0 mph N/A   Scattered Clouds
2:35 PM 77.0 °F 50.5 °F 39% 29.74 in 10.0 mi West 13.8 mph 23.0 mph N/A   Scattered Clouds
2:55 PM 77.4 °F 52.3 °F 42% 29.73 in 10.0 mi WSW 11.5 mph 18.4 mph N/A   Clear
3:15 PM 77.5 °F 52.7 °F 42% 29.73 in 10.0 mi WSW 12.7 mph - N/A   Scattered Clouds
3:35 PM 77.5 °F 51.6 °F 40% 29.73 in 10.0 mi West 15.0 mph 23.0 mph N/A   Scattered Clouds
3:55 PM 75.4 °F 52.0 °F 44% 29.73 in 10.0 mi WSW 19.6 mph 25.3 mph N/A   Mostly Cloudy
4:15 PM 74.8 °F 52.2 °F 45% 29.73 in 10.0 mi West 13.8 mph 24.2 mph N/A   Scattered Clouds
4:35 PM 75.0 °F 54.1 °F 48% 29.73 in 10.0 mi WSW 12.7 mph 20.7 mph N/A   Scattered Clouds
4:55 PM 75.0 °F 53.6 °F 47% 29.72 in 10.0 mi WSW 16.1 mph 24.2 mph N/A   Scattered Clouds
5:15 PM 75.6 °F 51.8 °F 43% 29.73 in 10.0 mi SW 19.6 mph 29.9 mph N/A   Scattered Clouds
5:35 PM 75.9 °F 51.3 °F 42% 29.73 in 10.0 mi SW 20.7 mph 25.3 mph N/A   Scattered Clouds
5:55 PM 75.7 °F 52.2 °F 44% 29.73 in 10.0 mi SW 17.3 mph 20.7 mph N/A   Clear
6:15 PM 72.7 °F 52.2 °F 48% 29.73 in 10.0 mi WSW 12.7 mph 17.3 mph N/A   Scattered Clouds
6:55 PM 66.2 °F 59.7 °F 80% 29.75 in 4.0 mi West 20.7 mph 25.3 mph 0.10 in Rain Heavy Rain
7:15 PM 65.3 °F 60.1 °F 83% 29.76 in 10.0 mi WSW 8.1 mph - 0.01 in Rain Light Rain
7:35 PM 65.5 °F 60.1 °F 83% 29.76 in 10.0 mi WSW 5.8 mph - 0.01 in   Overcast
7:55 PM 66.2 °F 59.9 °F 80% 29.76 in 10.0 mi WSW 6.9 mph - 0.01 in   Mostly Cloudy
8:15 PM 66.7 °F 59.0 °F 76% 29.77 in 10.0 mi West 10.4 mph - N/A   Mostly Cloudy
8:35 PM 66.4 °F 57.6 °F 73% 29.78 in 10.0 mi West 13.8 mph 19.6 mph N/A   Overcast
8:55 PM 66.2 °F 57.0 °F 72% 29.79 in 10.0 mi West 10.4 mph - N/A   Overcast
9:15 PM 65.7 °F 57.7 °F 76% 29.79 in 10.0 mi West 8.1 mph - N/A   Overcast
9:35 PM 65.5 °F 58.1 °F 77% 29.80 in 10.0 mi West 6.9 mph - N/A   Overcast
9:55 PM 65.3 °F 57.6 °F 76% 29.80 in 10.0 mi West 8.1 mph - N/A   Overcast
10:15 PM 64.8 °F 56.8 °F 75% 29.81 in 10.0 mi West 10.4 mph - N/A   Mostly Cloudy
10:55 PM 63.5 °F 56.7 °F 78% 29.82 in 10.0 mi West 9.2 mph - N/A   Overcast
11:15 PM 62.8 °F 56.1 °F 79% 29.82 in 10.0 mi West 8.1 mph - N/A   Scattered Clouds
11:35 PM 62.8 °F 55.6 °F 77% 29.82 in 10.0 mi WSW 8.1 mph - N/A   Mostly Cloudy
11:55 PM 62.6 °F 55.6 °F 78% 29.83 in 10.0 mi West 9.2 mph - N/A   Overcast